Regional Weather Roundup
Issued by NWS

Home | Current Version | Previous Version | Text Only | Print | Product List | Glossary On
Versions: 1 2 3 4 5 6 7 8 9 10 11 12 13 14 15 16 17 18 19 20 21 22 23 24 25 26 27 28 29 30 31 32 33 34 35 36 37 38 39 40 41 42 43 44 45 46 47 48 49 50
000
ASUS44 KBMX 071810
RWRAL

ALABAMA REGIONAL WEATHER ROUNDUP
NATIONAL WEATHER SERVICE BIRMINGHAM AL
1200 PM CST SUN FEB 07 2016

NOTE: "FAIR" INDICATES FEW OR NO CLOUDS BELOW 12,000 FEET
WITH NO SIGNIFICANT WEATHER AND/OR OBSTRUCTIONS TO VISIBILITY.

THE REMARK "TC" DENOTES TEMPERATURE IN DEGREES CELSIUS.

ALZ001>011-014-016>018-020-071900-
NORTH ALABAMA

CITY           SKY/WX    TMP DP  RH WIND       PRES   REMARKS
MUSCLE SHOALS  SUNNY     54  20  26 SW7       30.17F
6HR MIN TEMP:  26; 6HR MAX TEMP:  54;

HUNTSVILLE     MOSUNNY   52  25  35 VRB6      30.16F
6HR MIN TEMP:  28; 6HR MAX TEMP:  52;

DECATUR        SUNNY     49  24  37 VRB3      30.17F
6HR MIN TEMP:  26; 6HR MAX TEMP:  50;

HALEYVILLE     FAIR      53  20  27 SW6       30.17F
6HR MIN TEMP:  23; 6HR MAX TEMP:  53;

GADSDEN        SUNNY     54  25  32 N10       30.17F
6HR MIN TEMP:  24; 6HR MAX TEMP:  54;

$$

ALZ012-013-022-023-030>036-040>044-071900-
WEST CENTRAL ALABAMA

CITY           SKY/WX    TMP DP  RH WIND       PRES   REMARKS
TUSCALOOSA     SUNNY     54  21  27 VRB5      30.21F
6HR MIN TEMP:  26; 6HR MAX TEMP:  54;

$$

ALZ015-024>027-033>036-040>044-071900-
CENTRAL ALABAMA

CITY           SKY/WX    TMP DP  RH WIND       PRES   REMARKS
BIRMINGHAM     MOSUNNY   53  22  29 NW7       30.19F
6HR MIN TEMP:  27; 6HR MAX TEMP:  54;

MONTGOMERY     SUNNY     57  22  25 N8G17     30.20F
6HR MIN TEMP:  29; 6HR MAX TEMP:  57;

SHELBY CO ARPT SUNNY     54  22  28 W6        30.19F
6HR MIN TEMP:  32; 6HR MAX TEMP:  55;

MAXWELL AFB    SUNNY     56  23  27 N10       30.17F
6HR MIN TEMP:  28; 6HR MAX TEMP:  56;

GREENVILLE     FAIR      55  21  26 N10G17    30.18
6HR MIN TEMP:  31; 6HR MAX TEMP:  55;

$$

ALZ019-021-028-029-037-038-045>048-071900-
EAST CENTRAL ALABAMA

CITY           SKY/WX    TMP DP  RH WIND       PRES   REMARKS
ANNISTON       SUNNY     54  20  26 NW8G17    30.16F
6HR MIN TEMP:  25; 6HR MAX TEMP:  55;

ALEXANDER CITY SUNNY     51  27  38 N10       30.16F
6HR MIN TEMP:  27; 6HR MAX TEMP:  53;

AUBURN         SUNNY     54  23  30 NW9G20    30.15F
6HR MIN TEMP:  32; 6HR MAX TEMP:  54;

$$

ALZ051>064-071900-
SOUTHWEST ALABAMA

CITY           SKY/WX    TMP DP  RH WIND       PRES   REMARKS
MOBILE         SUNNY     57  22  25 VRB5      30.23F
6HR MIN TEMP:  30; 6HR MAX TEMP:  57;

BROOKLEY FIELD SUNNY     56  25  30 NE8       30.25F
6HR MIN TEMP:  33; 6HR MAX TEMP:  56;

EVERGREEN      SUNNY     57  23  26 NE10      30.21F
6HR MIN TEMP:  29; 6HR MAX TEMP:  57;

$$

ALZ049-050-065>069-071900-
SOUTHEAST ALABAMA

CITY           SKY/WX    TMP DP  RH WIND       PRES   REMARKS
DOTHAN         SUNNY     55  27  34 N14       30.18F
6HR MIN TEMP:  31; 6HR MAX TEMP:  55;

OZARK          SUNNY     56  25  30 N16       30.15F
6HR MIN TEMP:  33; 6HR MAX TEMP:  56;

TROY           SUNNY     57  25  29 N9G21     30.18F
6HR MIN TEMP:  34; 6HR MAX TEMP:  57;

EUFAULA        FAIR      57  25  29 NW8       30.13F
6HR MIN TEMP:  31; 6HR MAX TEMP:  57;

$$



USA.gov is the U.S. government's official web portal to all federal, state and local government web resources and services.